GFSNW_925_thetae_000.txt.gz
Theta_e
301 304 304 303 303 306 305 305 308 314 315 316 313 313 314 314 313 315 316 319 320 321 323 322 325 324 323 324 323 321 318 318 322 322 324 323 326 325 324 325 327 325 326 331
304 303 303 302 302 306 306 303 306 309 311 317 317 317 319 317 315 314 316 319 320 321 322 325 327 328 328 323 324 323 321 318 323 323 323 324 326 326 326 322 322 327 330 332
304 303 302 302 302 305 307 304 312 311 310 309 317 316 319 321 322 320 320 320 320 322 323 325 326 326 328 326 324 333 326 318 321 324 324 325 326 327 327 324 326 326 328 331
303 304 303 302 301 305 307 306 313 310 312 312 308 313 319 323 324 324 323 321 327 328 325 326 331 335 334 332 330 331 321 320 324 323 326 328 327 327 327 326 325 328 326 330
302 303 303 302 302 305 307 311 311 309 308 307 312 312 320 318 319 323 324 329 329 328 330 334 335 333 332 332 329 325 319 323 324 325 326 326 327 329 329 330 328 330 328 332
303 302 302 302 303 304 307 307 309 308 308 309 312 314 316 315 315 325 329 328 328 330 328 326 326 327 327 330 330 328 322 323 324 325 327 329 330 331 329 330 333 328 327 326
302 302 303 303 303 303 305 305 307 309 311 310 313 312 315 315 316 318 328 327 328 329 324 323 327 327 327 331 331 329 326 323 322 325 325 329 327 330 333 336 336 334 331 331
302 302 303 303 303 303 304 305 307 308 309 311 312 313 313 312 315 318 321 322 323 320 323 325 328 331 329 332 331 332 332 334 336 326 324 326 332 333 335 335 336 336 336 334
301 302 303 303 303 303 303 304 306 307 308 309 310 311 311 311 311 318 320 317 315 322 321 327 330 333 334 335 332 331 330 332 337 338 332 330 331 336 334 332 337 334 334 334
303 301 302 304 304 304 303 304 305 307 309 307 308 309 309 307 308 316 317 313 318 323 324 324 326 326 327 337 335 336 334 336 336 337 337 333 333 337 334 335 335 335 332 331
303 302 303 302 304 304 304 304 305 307 310 309 308 309 310 309 309 312 313 317 321 329 331 329 324 324 325 332 335 337 343 342 340 337 335 336 335 336 342 335 333 332 332 333
302 303 303 303 304 304 304 305 305 306 305 308 308 308 308 308 309 307 305 310 318 322 323 327 328 333 330 330 340 336 343 341 346 344 342 335 333 332 331 330 330 331 331 331
303 303 302 304 304 303 304 305 304 307 305 306 305 308 312 311 311 310 309 309 312 315 313 317 327 333 331 338 336 338 337 338 341 338 336 338 335 331 330 330 331 329 330 332
303 302 303 303 304 303 304 304 304 306 305 307 308 311 311 312 311 308 309 308 310 311 312 314 321 328 325 331 333 337 337 336 341 340 338 333 331 329 328 329 329 329 328 329
302 302 303 303 304 302 302 301 302 305 308 309 307 308 311 311 310 312 312 309 310 312 312 312 315 322 322 321 328 333 331 336 339 339 335 332 330 328 326 324 325 323 323 322
301 301 302 301 303 301 303 308 308 305 305 305 309 309 309 310 311 310 310 311 310 311 309 311 312 316 320 324 324 322 329 329 329 333 330 329 327 324 321 321 321 320 319 319
300 301 301 301 302 301 304 307 308 306 305 307 312 312 310 311 310 311 310 310 310 309 308 311 310 312 316 321 321 318 323 319 322 327 320 318 318 318 318 321 322 320 320 319
300 301 301 302 301 300 301 304 305 305 305 304 311 313 311 310 309 312 311 311 310 310 309 309 312 311 310 318 317 317 318 319 319 318 317 317 317 317 317 317 318 317 317 317
301 301 301 302 303 304 308 308 306 306 306 308 312 313 314 308 309 311 312 313 315 311 310 310 310 313 322 315 318 319 318 318 317 317 316 316 316 316 316 316 316 315 314 314
301 301 304 304 306 307 306 305 306 306 306 305 309 309 310 307 310 310 314 312 314 315 314 311 322 323 320 318 316 316 316 316 316 318 318 316 316 316 317 316 315 314 314 314
301 303 306 306 307 305 304 306 309 310 311 308 307 307 308 310 313 315 313 314 314 314 317 316 325 327 323 320 319 319 319 318 317 317 317 317 317 316 316 316 316 315 315 315
303 303 303 306 306 305 308 307 309 311 311 309 308 307 310 312 311 314 314 314 314 315 314 320 329 327 322 321 321 320 318 319 319 319 319 318 318 318 317 315 316 319 320 319
302 304 305 306 303 300 308 310 310 310 309 308 308 309 309 309 309 314 314 316 314 313 318 329 327 323 322 321 320 320 319 319 320 320 321 320 321 321 321 319 321 322 322 322
305 306 305 306 306 309 308 311 313 313 311 310 311 312 312 311 311 314 316 315 314 318 325 326 322 320 319 318 318 319 319 319 320 320 320 322 322 321 321 321 321 323 321 318
306 307 306 309 308 308 311 311 311 310 308 309 310 311 312 312 313 313 313 316 321 324 326 323 321 318 318 318 319 318 316 317 319 320 320 320 320 320 319 319 318 320 320 318
305 306 308 309 310 311 310 308 310 308 308 307 308 313 313 316 314 315 316 320 323 322 320 317 318 319 318 317 316 317 317 316 317 317 319 319 319 318 318 319 321 320 320 321
307 307 307 310 310 310 309 309 308 307 308 311 312 312 312 312 312 316 319 320 319 316 316 315 316 317 317 316 316 317 317 316 316 317 318 318 318 319 320 315 319 320 321 321

GFSNW_925_thetae_003.txt.gz
Theta_e
302 303 303 302 301 303 305 302 300 311 310 314 307 308 309 312 312 313 314 315 316 317 318 319 319 319 320 322 322 318 315 316 320 319 321 322 321 323 323 325 325 322 324 326
303 303 303 302 301 302 304 305 301 308 308 313 313 314 317 318 319 317 314 313 316 319 320 318 319 320 322 325 323 321 316 315 318 319 321 322 324 323 321 319 321 327 329 328
303 303 303 302 301 302 305 304 308 307 306 306 311 311 313 317 321 321 322 318 320 321 323 322 323 324 326 327 321 332 323 313 321 322 322 322 325 326 323 323 324 324 325 328
303 303 302 302 302 302 305 304 308 308 310 310 307 309 312 317 319 318 321 322 321 328 327 328 328 328 331 333 333 331 319 319 317 321 321 323 325 326 325 325 324 328 326 327
303 303 302 302 302 302 306 307 308 308 310 306 307 310 312 315 315 316 321 321 329 329 328 330 330 328 329 335 329 327 316 319 321 321 321 322 323 324 327 327 323 326 324 326
303 303 302 302 302 302 304 304 305 306 311 309 310 310 312 314 314 315 316 329 329 331 329 327 325 324 325 330 333 329 318 321 319 323 323 325 326 326 327 329 329 327 327 326
302 301 302 303 302 303 302 302 305 310 313 311 310 312 312 313 312 314 317 319 327 328 321 322 325 324 323 327 332 329 325 319 319 323 325 329 326 330 330 335 336 335 334 326
303 301 303 304 302 302 304 302 304 309 313 311 312 312 311 311 309 315 318 320 318 314 319 325 328 331 330 331 333 332 327 321 329 325 324 327 334 336 334 333 335 334 335 333
302 302 303 303 303 303 304 303 303 305 311 309 309 310 309 308 306 308 317 317 312 315 319 326 330 335 332 333 334 329 328 327 330 329 327 331 333 333 335 331 336 333 333 333
301 300 302 303 304 302 304 302 303 304 310 309 308 308 307 307 308 307 313 311 313 324 324 326 326 328 328 336 336 335 337 334 336 334 336 334 334 334 333 336 333 334 331 330
302 301 302 302 303 303 304 302 302 304 309 307 307 307 308 308 307 308 309 313 319 323 331 331 330 327 330 335 335 336 337 340 344 339 338 339 332 334 337 332 328 330 331 331
301 301 302 301 302 302 303 302 303 304 305 305 306 307 307 307 307 307 307 308 316 318 323 324 326 333 328 329 341 336 340 340 342 338 335 330 331 330 329 328 329 329 330 329
301 301 302 302 303 303 303 302 302 304 303 304 302 306 308 308 307 306 307 308 310 315 312 317 325 333 328 334 334 336 337 335 336 335 331 333 330 326 326 326 326 326 326 326
301 302 303 303 303 303 303 303 303 303 305 307 305 308 308 309 309 308 308 306 308 310 313 315 322 329 323 328 330 332 335 337 336 334 333 329 324 325 326 323 323 323 323 325
301 301 303 303 303 303 302 302 301 301 305 307 305 306 309 310 310 309 308 308 308 311 313 315 319 320 320 319 327 330 325 337 336 335 332 327 325 322 321 321 320 320 320 320
301 302 302 301 301 302 301 307 306 305 306 306 308 306 308 308 308 308 308 307 308 310 309 312 312 316 322 324 327 324 321 329 329 331 328 325 323 322 322 321 320 319 318 318
301 301 301 301 301 302 302 305 306 306 304 306 311 310 308 309 308 307 307 306 308 308 308 310 309 312 316 320 324 318 321 323 324 324 322 321 321 320 317 317 317 315 314 314
300 301 301 301 301 301 301 301 304 303 303 304 309 310 308 309 307 309 307 308 308 308 309 308 311 311 315 320 316 316 317 318 318 317 318 317 316 315 315 314 314 314 314 313
300 300 301 300 302 302 306 307 306 305 305 308 309 312 313 306 306 307 310 310 313 309 308 311 318 318 320 318 315 316 316 316 317 315 316 316 316 316 316 316 315 315 314 313
301 300 304 303 305 306 307 305 304 304 305 304 307 307 310 306 309 310 313 310 313 313 312 317 324 325 318 316 315 316 316 316 315 316 317 316 316 315 315 315 314 314 314 315
302 302 305 305 305 305 304 308 310 308 310 307 308 305 306 306 312 314 312 313 311 315 317 324 327 327 321 318 318 316 316 316 316 316 316 315 316 316 316 314 313 315 317 316
303 302 303 305 304 303 307 305 308 310 311 308 309 307 305 309 309 313 313 314 312 314 313 324 328 325 321 320 319 317 316 318 318 318 318 318 318 318 316 316 316 317 318 319
302 303 303 304 300 299 308 309 309 309 309 307 308 309 307 309 308 312 313 316 316 314 324 328 325 321 321 319 319 317 316 318 318 318 319 320 319 320 319 318 319 319 319 319
305 303 303 305 305 309 309 312 313 311 311 310 309 311 311 310 311 312 315 314 316 324 325 327 322 320 318 318 318 315 316 317 318 318 319 319 318 317 318 318 317 316 317 317
302 304 308 310 309 308 311 312 310 310 307 309 309 311 311 311 313 313 313 317 324 325 326 324 319 317 316 316 315 315 315 314 315 315 316 317 317 316 315 317 318 318 318 318
304 306 309 308 309 310 309 309 310 309 307 306 308 311 311 314 312 315 320 322 323 321 318 316 314 315 315 315 314 314 314 314 313 314 315 315 315 315 316 317 316 318 319 319
306 308 308 309 308 309 309 308 309 306 308 312 311 312 314 309 312 319 319 320 318 316 315 312 312 313 313 313 314 314 314 314 314 314 315 314 315 315 313 312 315 318 318 319

GFSNW_925_thetae_006.txt.gz
Theta_e
303 303 303 303 302 302 302 302 298 308 308 310 304 306 306 309 311 312 313 315 315 315 316 315 317 318 318 319 318 318 314 316 318 317 318 319 320 319 319 323 321 319 321 324
304 303 303 302 302 302 303 302 302 305 306 312 311 310 314 315 318 317 318 316 313 314 316 319 316 316 318 318 318 319 315 313 318 317 316 320 320 320 317 316 317 322 325 325
304 303 302 302 302 301 303 303 303 304 303 303 308 306 308 313 316 318 318 318 317 317 319 317 318 321 325 325 326 339 328 313 318 321 319 319 322 323 320 319 321 322 324 325
303 303 303 303 302 302 303 304 304 306 310 309 309 306 308 314 316 316 317 319 320 320 320 323 320 320 322 328 331 325 314 318 316 321 318 320 321 323 322 322 321 325 325 324
304 304 302 302 302 302 304 308 308 305 307 308 306 308 309 314 314 313 315 319 321 320 322 324 325 325 326 330 332 328 316 317 315 321 319 320 321 322 324 324 323 323 324 324
304 304 301 301 303 302 302 302 303 306 309 310 309 308 311 312 312 313 313 316 318 325 326 321 323 323 324 329 329 333 323 316 316 321 318 318 319 321 321 323 323 324 325 326
303 303 303 302 302 303 302 301 302 307 308 311 312 311 312 312 312 312 311 311 314 323 313 316 319 321 323 324 326 329 335 319 315 322 321 322 321 324 322 325 331 329 329 325
303 304 302 302 301 302 303 302 301 305 309 309 311 311 310 308 308 308 312 313 316 309 315 322 325 327 329 329 332 332 329 319 321 321 319 323 334 334 333 333 334 333 334 333
302 303 302 302 302 302 303 303 303 301 304 307 308 310 310 310 307 306 309 313 308 314 318 324 327 331 332 335 332 329 329 328 327 323 324 332 331 333 333 332 335 331 332 331
303 302 303 302 302 302 302 303 302 303 306 305 307 308 308 306 308 308 307 308 312 319 322 325 326 326 327 337 337 338 336 337 337 333 333 333 333 332 332 334 331 330 329 330
301 301 302 302 302 301 303 303 302 303 305 304 306 306 307 307 307 309 309 311 319 322 328 329 328 326 329 333 332 335 336 342 343 337 337 338 330 333 333 332 328 330 331 330
301 301 301 301 301 301 302 303 302 303 303 304 304 304 305 306 307 307 307 307 311 320 321 323 325 331 328 331 340 333 339 339 339 335 334 330 329 327 327 328 329 329 328 328
301 301 302 301 301 301 303 303 302 302 304 304 303 304 305 305 306 306 306 307 311 314 312 316 322 331 328 333 334 336 337 331 335 335 331 329 325 325 323 325 325 324 325 328
300 301 301 301 301 302 302 304 302 303 303 306 304 305 305 307 307 306 306 306 306 307 312 315 319 325 323 328 331 333 332 333 333 331 329 329 324 325 325 323 322 322 321 323
300 301 300 302 302 302 303 303 303 302 303 306 305 304 306 308 307 305 305 304 305 308 310 315 318 319 319 320 328 331 324 332 332 331 327 327 323 323 325 322 321 321 320 319
300 301 302 301 301 302 301 304 304 302 302 307 306 303 305 308 306 305 303 304 307 309 308 310 315 313 321 328 331 323 323 328 326 325 321 322 320 320 319 317 316 316 316 317
300 301 301 301 301 302 301 304 303 304 303 306 307 307 306 308 307 306 306 304 307 307 306 310 313 312 320 323 325 321 321 323 324 323 322 320 319 318 316 316 316 315 314 314
300 300 301 301 301 301 301 302 304 301 302 303 306 308 308 307 307 308 305 306 305 306 308 308 312 317 322 324 320 319 320 320 319 320 319 317 317 317 317 315 316 316 315 314
300 300 300 301 302 300 304 308 305 304 303 306 309 313 313 305 305 306 309 307 309 306 313 319 319 321 324 321 318 319 317 317 317 318 318 318 318 317 316 315 314 315 316 315
301 300 303 303 304 305 306 306 302 302 302 302 306 306 309 306 309 309 311 308 310 311 312 318 324 325 320 318 317 317 317 316 316 318 318 317 317 317 316 315 314 315 317 317
303 303 305 304 305 304 303 307 308 307 309 306 307 306 307 307 312 313 311 310 308 316 318 323 327 326 321 318 318 316 316 317 315 315 315 315 316 317 316 317 317 316 317 317
302 302 303 304 303 302 306 305 306 309 312 309 309 307 305 308 306 311 312 313 310 314 315 323 328 324 319 318 318 317 316 317 318 317 318 318 318 317 317 317 318 317 318 318
302 301 300 301 300 306 310 313 314 311 310 310 308 307 309 309 307 311 313 315 314 316 325 326 325 321 320 318 316 316 316 317 317 319 319 317 317 317 317 317 316 316 316 317
302 304 307 308 307 312 312 312 312 311 311 310 308 310 311 309 311 312 316 313 319 322 326 324 322 320 318 316 315 315 315 315 315 316 316 316 316 316 315 315 316 316 316 317
303 305 308 308 309 310 311 310 309 309 309 309 311 310 310 312 314 313 316 320 323 325 326 323 320 317 316 315 315 314 314 314 313 313 314 314 314 314 314 316 315 318 317 318
305 307 311 310 310 310 310 309 310 308 307 307 308 309 311 311 313 319 321 322 321 323 320 317 314 314 314 314 314 314 313 313 312 312 313 313 312 313 313 313 315 317 317 317
307 309 308 308 308 308 308 308 307 305 307 311 311 313 314 310 317 320 319 321 318 316 315 312 311 312 312 311 312 312 312 312 312 312 313 313 313 312 311 311 313 316 318 318

GFSNW_925_thetae_009.txt.gz
Theta_e
302 303 303 303 302 301 302 302 301 306 307 313 308 310 309 308 311 311 311 315 318 318 318 317 318 319 322 321 321 322 323 325 326 324 323 322 324 326 328 330 334 330 332 332
303 304 303 302 302 301 303 303 304 302 305 311 313 313 313 314 315 315 316 314 316 316 316 317 319 319 320 320 321 325 321 324 326 325 325 323 323 324 326 328 330 338 331 331
303 303 303 303 303 302 303 304 306 307 308 307 311 314 313 314 315 317 318 318 319 321 323 322 323 321 322 323 321 332 328 330 330 330 328 325 324 323 325 326 329 329 330 330
304 304 303 302 302 302 302 304 307 308 314 313 314 311 310 312 313 316 317 322 321 322 323 323 323 324 323 323 326 333 332 332 330 331 332 327 325 322 324 327 328 331 329 332
304 303 303 302 302 302 303 305 308 306 308 309 312 311 311 313 315 315 316 319 319 320 324 324 324 325 325 328 331 334 324 335 325 326 328 327 325 325 324 325 326 328 328 332
303 303 303 302 302 303 302 302 302 304 305 308 310 311 311 312 312 313 315 315 315 318 320 321 323 324 326 329 333 338 340 333 336 334 325 325 326 326 326 326 327 328 330 331
304 303 302 302 302 303 302 301 301 304 304 306 309 311 311 312 311 312 311 312 313 315 314 318 322 321 324 327 330 331 342 341 330 335 328 327 325 326 326 327 327 329 329 332
303 302 303 302 302 301 302 302 302 303 303 305 306 308 310 311 311 310 310 311 312 313 314 323 330 331 331 331 331 333 337 334 335 333 331 331 329 332 326 325 327 328 330 333
303 303 303 304 302 302 302 302 302 302 302 302 303 308 309 310 311 310 310 310 310 316 323 329 333 332 329 335 337 333 336 338 338 338 336 332 339 337 335 337 332 338 338 339
303 303 303 303 302 302 302 302 302 302 304 302 303 304 307 308 310 310 309 310 312 320 330 330 332 331 331 333 336 338 343 341 340 344 342 334 336 334 335 337 337 337 337 337
303 303 303 302 301 302 303 302 302 303 304 303 302 303 305 308 309 310 308 310 316 324 334 335 332 331 333 336 337 338 339 342 345 344 345 341 331 335 340 339 336 337 338 338
302 302 302 301 301 301 301 302 303 303 304 303 302 303 303 305 305 307 308 309 309 315 323 328 330 338 334 339 338 334 341 339 344 341 341 332 328 331 332 336 336 337 339 338
302 302 301 301 302 301 302 302 302 302 303 304 304 304 303 303 304 304 307 307 310 317 314 320 326 336 334 342 342 335 338 334 337 338 336 330 329 327 327 328 330 332 335 334
301 300 301 301 301 301 302 302 303 302 303 305 304 304 305 306 305 305 305 307 308 309 315 321 323 331 327 335 337 341 332 333 336 334 330 329 327 327 327 327 325 326 326 328
300 300 301 300 302 302 302 303 303 303 302 305 304 304 306 306 306 306 306 307 307 309 316 318 322 322 324 328 334 331 326 331 336 334 331 332 330 325 322 322 322 324 324 324
301 300 301 301 302 301 302 303 303 302 303 303 308 306 307 308 306 307 308 308 307 308 315 317 316 317 325 336 333 323 325 326 329 328 326 324 321 320 321 321 321 320 321 321
301 301 300 301 301 301 303 302 301 302 302 305 309 309 309 309 308 308 308 307 310 312 314 313 317 319 326 327 327 322 324 324 324 323 323 322 320 320 318 319 319 318 318 319
300 299 300 301 300 301 302 303 302 302 301 304 308 310 312 309 312 313 310 311 311 313 313 316 321 323 326 326 322 321 321 321 321 321 320 320 320 319 318 318 319 321 320 320
300 300 300 301 302 302 303 306 305 303 303 307 310 313 317 311 310 310 313 312 314 311 323 324 323 325 326 323 321 321 320 319 321 320 320 320 321 320 320 320 321 321 321 321
301 301 303 305 304 304 305 307 305 305 306 306 308 308 312 310 314 314 315 314 316 325 323 323 325 324 323 321 320 320 319 318 318 321 322 322 322 321 322 321 321 322 322 321
303 304 306 304 304 305 307 309 310 310 312 310 310 310 312 312 316 317 315 315 315 325 324 325 327 326 323 321 321 320 320 320 320 320 320 321 321 321 321 321 322 323 323 323
303 303 302 303 306 307 308 310 309 311 313 313 313 312 311 312 310 315 316 317 316 323 322 326 326 324 322 321 320 320 319 321 322 321 320 319 319 319 320 320 321 321 321 321
303 303 304 305 306 310 312 317 315 315 314 313 313 314 313 316 311 315 318 319 322 321 326 325 325 323 321 320 319 319 319 319 319 319 318 318 318 318 318 320 320 320 320 321
305 306 309 310 311 311 313 313 314 313 314 313 311 313 315 315 316 317 319 319 321 324 325 322 323 321 320 319 319 319 318 318 317 318 318 318 317 317 317 318 319 321 321 322
306 304 307 307 309 311 312 312 312 312 312 312 314 314 315 316 318 319 318 322 323 325 324 321 322 320 320 320 319 319 319 318 318 318 318 317 317 318 317 317 319 320 321 322
306 309 311 310 311 312 311 311 312 310 310 313 313 314 315 314 320 321 321 321 320 323 322 320 319 319 319 319 318 318 318 318 318 317 317 317 318 317 317 316 318 319 321 322
310 311 310 310 310 311 311 310 310 309 312 315 315 317 316 315 319 321 321 318 318 318 319 318 317 319 318 318 318 318 317 317 316 316 317 317 316 316 317 319 317 316 317 319